This is the latest recevied weather packets stored in our database for station/object N5TSS. If no packets are shown the sender has not sent any weather packets the latest 1 day(s).
| Time | Temp. | Humidity | Pressure | Rain* | Wind** | Luminosity | Snow |
|---|---|---|---|---|---|---|---|
| 1778033933 | 25.56° C | 80% | 1009.1 hPa | 0 mm | 0.89 m/s, 156° | - | - |
| 1778033630 | 25.56° C | 80% | 1009.1 hPa | 0 mm | 0.89 m/s, 208° | - | - |
| 1778033326 | 25.56° C | 80% | 1009.1 hPa | 0 mm | 0.45 m/s, 174° | - | - |
| 1778033024 | 25.56° C | 80% | 1008.8 hPa | 0 mm | 1.34 m/s, 158° | - | - |
| 1778032721 | 25.56° C | 80% | 1009.1 hPa | 0 mm | 0.45 m/s, 131° | - | - |
| 1778032419 | 25.56° C | 80% | 1008.8 hPa | 0 mm | 0.89 m/s, 185° | - | - |
| 1778032115 | 25.56° C | 80% | 1008.8 hPa | 0 mm | 0.89 m/s, 142° | - | - |
| 1778031812 | 25.56° C | 80% | 1008.8 hPa | 0 mm | 0 m/s | - | - |
| 1778031509 | 26.11° C | 80% | 1008.5 hPa | 0 mm | 0.89 m/s, 191° | - | - |
| 1778031206 | 26.11° C | 79% | 1008.5 hPa | 0 mm | 0.89 m/s, 141° | - | - |
| 1778030903 | 26.11° C | 79% | 1008.5 hPa | 0 mm | 0 m/s | - | - |
| 1778030600 | 26.11° C | 79% | 1008.5 hPa | 0 mm | 0.89 m/s, 147° | - | - |
| 1778030297 | 26.11° C | 79% | 1008.1 hPa | 0 mm | 1.34 m/s, 174° | - | - |
| 1778029994 | 26.11° C | 78% | 1008.1 hPa | 0 mm | 1.34 m/s, 150° | - | - |
| 1778029691 | 26.11° C | 78% | 1008.1 hPa | 0 mm | 1.79 m/s, 144° | - | - |
| 1778029389 | 26.11° C | 78% | 1008.1 hPa | 0 mm | 0.89 m/s, 167° | - | - |
| 1778029086 | 26.67° C | 77% | 1008.1 hPa | 0 mm | 1.79 m/s, 193° | - | - |
| 1778028782 | 26.67° C | 77% | 1008.1 hPa | 0 mm | 1.34 m/s, 164° | - | - |
| 1778028478 | 26.67° C | 77% | 1007.8 hPa | 0 mm | 1.79 m/s, 169° | - | - |
| 1778028177 | 26.67° C | 77% | 1007.8 hPa | 0 mm | 1.79 m/s, 167° | - | - |
| 1778027872 | 26.67° C | 77% | 1007.8 hPa | 0 mm | 1.79 m/s, 206° | - | - |
| 1778027569 | 26.67° C | 77% | 1007.8 hPa | 0 mm | 1.34 m/s, 182° | - | - |
| 1778027265 | 26.67° C | 77% | 1007.8 hPa | 0 mm | 0.89 m/s, 168° | - | - |
| 1778026961 | 26.67° C | 77% | 1007.8 hPa | 0 mm | 1.34 m/s, 203° | - | - |
| 1778026657 | 26.67° C | 77% | 1007.8 hPa | 0 mm | 0.89 m/s, 143° | - | - |
* Rain latest hour (hover to see other rain measurements)
** Current wind speed in m/s (hover to see current wind gust speed)